Regional Weather Roundup
Issued by NWS Little Rock, AR

Home | Current Version | Previous Version | Text Only | Print | Product List | Glossary Off
Versions: 1 2 3 4 5 6 7 8 9 10 11 12 13 14 15 16 17 18 19 20 21 22 23 24 25 26 27 28 29 30 31 32

000
ASUS44 KLZK 272005
RWRLZK

WEATHER ROUNDUP FOR ARKANSAS
NATIONAL WEATHER SERVICE LITTLE ROCK AR
300 PM CDT THU APR 27 2017

NOTE: "FAIR" INDICATES FEW OR NO CLOUDS BELOW 12,000 FEET WITH NO
SIGNIFICANT WEATHER AND/OR OBSTRUCTIONS TO VISIBILITY.

ARZ001-003-010-029-272100-
NORTHWEST ARKANSAS

CITY           SKY/WX    TMP DP  RH WIND       PRES   REMARKS
FAYETTEVILLE   SUNNY     64  43  46 VRB3      29.75F
FORT SMITH     PTSUNNY   66  44  45 E7        29.76F
HARRISON       SUNNY     63  44  50 E7        29.78F
BENTONVILLE    SUNNY     64  43  45 SE6       29.76F
ROGERS         SUNNY     64  45  49 SE7       29.76F
SILOAM SPGS    SUNNY     63  45  51 S12       29.75F
HIGHFILL       SUNNY     63  42  46 SE8       29.75F
$$

ARZ004-005-016-272100-
NORTH CENTRAL ARKANSAS

CITY           SKY/WX    TMP DP  RH WIND       PRES   REMARKS
BATESVILLE     SUNNY     68  46  45 SE3       29.81S
FLIPPIN        SUNNY    N/A N/A N/A S3        29.76F
MTN HOME       SUNNY     64  44  48 S8        29.78S
$$

ARZ040-041-272100-
WEST CENTRAL ARKANSAS

CITY           SKY/WX    TMP DP  RH WIND       PRES   REMARKS
MENA           SUNNY     70  46  43 SE3       29.78F
MOUNT IDA      SUNNY     69  46  43 VRB5      29.76F
$$

ARZ009-017-025-026-028-272100-
NORTHEAST ARKANSAS

CITY           SKY/WX    TMP DP  RH WIND       PRES   REMARKS
JONESBORO      SUNNY     63  49  60 VRB3      29.82F
NEWPORT        SUNNY     65  50  58 MISG        N/A
WALNUT RIDGE   SUNNY     63  48  59 SE3       29.81F
BLYTHEVILLE    MOSUNNY   62  51  67 VRB7      29.84F
NW BLYTHEVILLE MOSUNNY   64  50  59 SW9       29.83F
$$

ARZ022-023-033-042-044-272100-
CENTRAL ARKANSAS

CITY           SKY/WX    TMP DP  RH WIND       PRES   REMARKS
LITTLE ROCK    MOSUNNY   66  51  58 S8        29.83F
N LITTLE ROCK    N/A     67  51  57 S5        29.83F
JACKSONVILLE   SUNNY     67  50  54 SW6       29.82F
CONWAY           N/A     66  50  55 CALM      29.80F
SEARCY         SUNNY     66  49  54 MISG        N/A
HOT SPRINGS    SUNNY     68  50  52 VRB5      29.80F
RUSSELLVILLE   MOSUNNY   64  46  52 S5        29.80F
CLINTON          N/A     66  48  52 S5        29.80F
$$

ARZ036-272100-
EAST ARKANSAS

CITY           SKY/WX    TMP DP  RH WIND       PRES   REMARKS
WEST MEMPHIS   SUNNY     64  50  60 VRB5      29.82F
$$

ARZ050-053-066-070-073-272100-
SOUTHWEST ARKANSAS

CITY           SKY/WX    TMP DP  RH WIND       PRES   REMARKS
ARKADELPHIA    FAIR      68  51  54 CALM      29.81F
CAMDEN         SUNNY     72  48  43 SW5       29.82F
TEXARKANA      SUNNY     69  51  52 SE8       29.79F
EL DORADO      SUNNY     70  50  49 E8        29.81F
DE QUEEN       SUNNY     69  51  52 SE8       29.76F
$$

ARZ056-057-069-272100-
SOUTHEAST ARKANSAS

CITY           SKY/WX    TMP DP  RH WIND       PRES   REMARKS
PINE BLUFF     SUNNY     67  49  52 VRB3      29.84F
STUTTGART      SUNNY     66  45  45 S5        29.85F
MONTICELLO     SUNNY     70  50  49 VRB5      29.83F

$$






USA.gov is the U.S. government's official web portal to all federal, state and local government web resources and services.